Raleigh, IL

8:06 AM CST on January 24, 2017 (GMT -0600)
Harrisburg-Raleigh

Weather History for KHSB - September, 2013

Change the Weather History Date:

Sunday, September 22, 2013

  Actual Average (KMWA) Record (KMWA)
Temperature  
Mean Temperature 60 °F -  
Max Temperature 74 °F 76 °F 91 °F (2005)
Min Temperature 45 °F 52 °F 33 °F (1983)
Degree Days  
Heating Degree Days 6    
Growing Degree Days 10 (Base 50)    
Moisture  
Dew Point 49 °F    
Average Humidity 72    
Maximum Humidity 100    
Minimum Humidity 36    
Precipitation  
Precipitation 0.00 in - - ()
Sea Level Pressure  
Sea Level Pressure 29.97 in    
Wind  
Wind Speed 2 mph (NE)    
Max Wind Speed 9 mph    
Max Gust Speed -    
Visibility 10 miles    
Events      
Averages and records for this station are not official NWS values.
T = Trace of Precipitation, MM = Missing Value Source: NWS Daily Summary

Daily Weather History Graph

Daily Weather History Graph

Search for Another Location

Airport or City:

Trip Planner

Search our weather history database for the weather conditions in past years. The results will help you decide how hot, cold, wet, or windy it might be!

Date:

Astronomy

Sep. 22, 2013 Rise Set
Actual Time 6:42 AM CDT 6:50 PM CDT
Civil Twilight 6:16 AM CDT 7:16 PM CDT
Nautical Twilight 5:45 AM CDT 7:47 PM CDT
Astronomical Twilight 5:14 AM CDT 8:18 PM CDT
Moon 8:45 PM CDT (9/22) 9:58 AM CDT (9/22)
Length of Visible Light 13h 00m
Length of Day
12h 08m
Waning Gibbous, 88% of the Moon is Illuminated
Sep 22
Waning Gibbous
Sep 26
Last Quarter
Oct 4
New
Oct 11
First Quarter
Oct 18
Full

Hourly Weather History & Observations

Time (CDT) Temp. Dew Point Humidity Pressure Visibility Wind Dir Wind Speed Gust Speed Precip Events Conditions
12:15 AM 52.5 °F 52.3 °F 99% 29.94 in 10.0 mi Calm Calm - N/A   Clear
12:35 AM 51.3 °F 51.1 °F 99% 29.94 in 10.0 mi Calm Calm - N/A   Clear
12:55 AM 50.9 °F 50.9 °F 100% 29.94 in 10.0 mi Calm Calm - N/A   Clear
1:15 AM 51.3 °F 51.3 °F 100% 29.94 in 10.0 mi Calm Calm - N/A   Clear
1:35 AM 51.4 °F 51.4 °F 100% 29.94 in 10.0 mi Calm Calm - N/A   Clear
1:55 AM 51.8 °F 51.8 °F 100% 29.94 in 10.0 mi Calm Calm - N/A   Clear
2:15 AM 52.3 °F 51.1 °F 95% 29.94 in 10.0 mi Calm Calm - N/A   Clear
2:35 AM 50.5 °F 49.5 °F 96% 29.94 in 10.0 mi Calm Calm - N/A   Clear
2:55 AM 49.1 °F 48.6 °F 98% 29.94 in 10.0 mi Calm Calm - N/A   Clear
3:15 AM 49.5 °F 49.3 °F 99% 29.94 in 10.0 mi Calm Calm - N/A   Clear
3:35 AM 49.3 °F 49.3 °F 100% 29.94 in 10.0 mi Calm Calm - N/A   Clear
3:55 AM 48.2 °F 48.2 °F 100% 29.95 in 10.0 mi Calm Calm - N/A   Clear
4:15 AM 48.2 °F 48.2 °F 100% 29.95 in 10.0 mi NNW 3.5 mph - N/A   Clear
4:35 AM 50.2 °F 49.3 °F 97% 29.95 in 10.0 mi Calm Calm - N/A   Clear
4:55 AM 50.9 °F 50.0 °F 97% 29.96 in 10.0 mi Calm Calm - N/A   Clear
5:15 AM 51.4 °F 50.0 °F 95% 29.96 in 10.0 mi Calm Calm - N/A   Clear
5:35 AM 50.4 °F 48.7 °F 94% 29.96 in 10.0 mi Calm Calm - N/A   Clear
5:55 AM 47.8 °F 46.6 °F 95% 29.97 in 10.0 mi Calm Calm - N/A   Clear
6:15 AM 46.0 °F 45.7 °F 99% 29.97 in 10.0 mi Calm Calm - N/A   Clear
6:35 AM 46.2 °F 46.0 °F 99% 29.98 in 10.0 mi Calm Calm - N/A   Clear
6:55 AM 45.7 °F 45.5 °F 99% 29.99 in 10.0 mi Calm Calm - N/A   Clear
7:15 AM 46.9 °F 46.9 °F 100% 29.99 in 10.0 mi Calm Calm - N/A   Clear
7:35 AM 48.4 °F 48.4 °F 100% 30.00 in 10.0 mi Calm Calm - N/A   Clear
7:55 AM 51.3 °F 51.3 °F 100% 30.00 in 10.0 mi Calm Calm - N/A   Clear
8:15 AM 55.4 °F 53.4 °F 93% 30.01 in 10.0 mi NNE 4.6 mph - N/A   Clear
8:35 AM 57.2 °F 53.1 °F 86% 30.01 in 10.0 mi NE 3.5 mph - N/A   Clear
8:55 AM 58.6 °F 51.8 °F 78% 30.02 in 10.0 mi ENE 5.8 mph - N/A   Clear
9:15 AM 59.9 °F 52.0 °F 75% 30.02 in 10.0 mi ENE 3.5 mph - N/A   Clear
9:35 AM 61.9 °F 52.2 °F 70% 30.02 in 10.0 mi ENE 3.5 mph - N/A   Clear
9:55 AM 63.1 °F 51.6 °F 66% 30.02 in 10.0 mi East 5.8 mph - N/A   Clear
10:15 AM 65.3 °F 51.8 °F 62% 30.02 in 10.0 mi East 3.5 mph - N/A   Clear
10:35 AM 65.8 °F 50.7 °F 58% 30.02 in 10.0 mi ENE 4.6 mph - N/A   Clear
10:55 AM 67.3 °F 49.6 °F 53% 30.02 in 10.0 mi East 5.8 mph - N/A   Clear
11:15 AM 68.2 °F 48.9 °F 50% 30.02 in 10.0 mi ENE 4.6 mph - N/A   Clear
11:35 AM 69.3 °F 48.6 °F 48% 30.02 in 10.0 mi North 3.5 mph - N/A   Clear
11:55 AM 69.8 °F 47.8 °F 46% 30.02 in 10.0 mi ENE 4.6 mph - N/A   Clear
12:15 PM 71.8 °F 49.1 °F 45% 30.02 in 10.0 mi East 4.6 mph - N/A   Clear
12:35 PM 71.4 °F 46.8 °F 41% 30.01 in 10.0 mi North 5.8 mph - N/A   Clear
12:55 PM 71.4 °F 46.4 °F 41% 30.00 in 10.0 mi North 5.8 mph - N/A   Clear
1:15 PM 72.3 °F 46.8 °F 40% 29.99 in 10.0 mi NNE 8.1 mph - N/A   Clear
1:35 PM 72.7 °F 46.8 °F 40% 29.98 in 10.0 mi NNE 9.2 mph - N/A   Clear
1:55 PM 72.1 °F 45.9 °F 39% 29.98 in 10.0 mi North 3.5 mph - N/A   Clear
2:15 PM 73.4 °F 46.0 °F 38% 29.97 in 10.0 mi NNE 8.1 mph - N/A   Clear
2:35 PM 73.9 °F 45.5 °F 36% 29.97 in 10.0 mi NNE 9.2 mph - N/A   Clear
2:55 PM 73.8 °F 45.9 °F 37% 29.96 in 10.0 mi ENE 9.2 mph - N/A   Clear
3:15 PM 73.8 °F 46.6 °F 38% 29.95 in 10.0 mi NE 4.6 mph - N/A   Clear
3:35 PM 73.6 °F 46.6 °F 38% 29.95 in 10.0 mi North 4.6 mph - N/A   Clear
3:55 PM 74.5 °F 45.5 °F 36% 29.95 in 10.0 mi East 4.6 mph - N/A   Clear
4:15 PM 74.1 °F 45.9 °F 36% 29.95 in 10.0 mi Calm Calm - N/A   Clear
4:35 PM 73.6 °F 46.0 °F 37% 29.95 in 10.0 mi Calm Calm - N/A   Clear
4:55 PM 73.8 °F 46.2 °F 37% 29.94 in 10.0 mi ENE 5.8 mph - N/A   Clear
5:15 PM 73.6 °F 45.7 °F 37% 29.94 in 10.0 mi NE 3.5 mph - N/A   Clear
5:35 PM 73.2 °F 47.1 °F 39% 29.94 in 10.0 mi NNE 5.8 mph - N/A   Clear
5:55 PM 72.7 °F 46.4 °F 39% 29.95 in 10.0 mi East 5.8 mph - N/A   Clear
6:15 PM 71.2 °F 48.2 °F 44% 29.95 in 10.0 mi ENE 4.6 mph - N/A   Clear
6:35 PM 69.6 °F 48.2 °F 46% 29.95 in 10.0 mi ENE 3.5 mph - N/A   Clear
6:55 PM 67.1 °F 49.3 °F 53% 29.95 in 10.0 mi ENE 3.5 mph - N/A   Clear
7:15 PM 64.4 °F 49.6 °F 59% 29.95 in 10.0 mi ENE 3.5 mph - N/A   Clear
7:35 PM 62.6 °F 50.7 °F 65% 29.96 in 10.0 mi NE 3.5 mph - N/A   Clear
7:55 PM 62.6 °F 50.0 °F 63% 29.96 in 10.0 mi NE 3.5 mph - N/A   Clear
8:15 PM 58.3 °F 51.1 °F 77% 29.97 in 10.0 mi NE 3.5 mph - N/A   Clear
8:35 PM 56.5 °F 50.9 °F 82% 29.98 in 10.0 mi NNE 3.5 mph - N/A   Clear
8:55 PM 56.7 °F 51.3 °F 82% 29.98 in 10.0 mi NE 3.5 mph - N/A   Clear
9:15 PM 56.1 °F 52.3 °F 87% 29.98 in 10.0 mi Calm Calm - N/A   Clear
9:35 PM 55.4 °F 51.8 °F 88% 29.98 in 10.0 mi Calm Calm - N/A   Clear
9:55 PM 54.7 °F 51.4 °F 89% 29.99 in 10.0 mi ENE 3.5 mph - N/A   Clear
10:15 PM 54.3 °F 51.6 °F 91% 29.99 in 10.0 mi NE 3.5 mph - N/A   Clear
10:35 PM 54.9 °F 50.5 °F 85% 29.99 in 10.0 mi Calm Calm - N/A   Clear
10:55 PM 53.2 °F 50.0 °F 89% 29.99 in 10.0 mi NNE 3.5 mph - N/A   Clear
11:15 PM 52.7 °F 50.2 °F 91% 29.99 in 10.0 mi Calm Calm - N/A   Clear
11:35 PM 51.6 °F 49.8 °F 94% 29.99 in 10.0 mi Calm Calm - N/A   Clear
11:55 PM 51.4 °F 49.5 °F 93% 29.99 in 10.0 mi Calm Calm - N/A   Clear